Regional Weather Roundup
Issued by NWS

Home | Current Version | Previous Version | Graphics & Text | Print | Product List | Glossary On
Versions: 1 2 3 4 5 6 7 8 9 10 11 12 13 14 15 16 17 18 19 20 21 22 23 24 25 26 27 28 29 30 31 32 33 34 35 36 37 38 39 40 41 42 43 44 45 46 47 48 49 50
000
ASUS43 KLOT 230702
RWRIL

ILLINOIS REGIONAL WEATHER ROUNDUP
NATIONAL WEATHER SERVICE CHICAGO/ROMEOVILLE IL
200 AM CDT THU MAR 23 2017

NOTE: "FAIR" INDICATES FEW OR NO CLOUDS BELOW 12,000 FEET WITH NO
SIGNIFICANT WEATHER AND/OR OBSTRUCTIONS TO VISIBILITY.

* THESE STATIONS ARE NOT UNDER NWS QUALITY CONTROL. THEY ALSO MAY NOT
  REPORT WEATHER SUCH AS PRECIPITATION OR FOG.

ILZ001-002-007-009-015-016-024-230800-
NORTHWEST ILLINOIS

CITY           SKY/WX    TMP DP  RH WIND       PRES   REMARKS
MOLINE         MOCLDY    34  21  59 SE13      30.36F WCI  25
STERLING*      CLOUDY    32  24  72 E13       30.41F WCI  22
SAVANNA*       CLOUDY    34  20  56 SE9       30.40F WCI  26
$$

ILZ003-004-008-010-011-017-018-230800-
NORTH CENTRAL ILLINOIS

CITY           SKY/WX    TMP DP  RH WIND       PRES   REMARKS
ROCKFORD       MOCLDY    29  19  66 E6        30.45F WCI  23
FREEPORT*      CLOUDY    29  20  67 SE13      30.42F WCI  19
ROCHELLE*      CLOUDY    31  21  67 E8        30.44S WCI  23
DE KALB*       CLOUDY    29  22  73 E9        30.43F WCI  21
PERU*          CLOUDY    31  22  69 E5        30.44S WCI  26
$$

ILZ005-006-012>014-019>023-230800-
NORTHEAST ILLINOIS

CITY           SKY/WX    TMP DP  RH WIND       PRES   REMARKS
CHICAGO-OHARE  CLOUDY    32  23  69 E5        30.45S WCI  27
CHICAGO-MIDWAY CLOUDY    33  19  56 SE9       30.46S WCI  25
AURORA         CLOUDY    32  22  66 E9        30.45R WCI  24
LANSING*       CLOUDY    28  23  81 E6        30.46S WCI  22
JOLIET*        CLOUDY    33  23  67 SE7       30.46R WCI  26
WAUKEGAN       CLOUDY    25  22  88 E5        30.45F WCI  19
DUPAGE AIRPORT CLOUDY    28  23  81 E6        30.44R WCI  22
KANKAKEE*      CLOUDY    28  22  76 CALM      30.46R
WHEELING       CLOUDY    26  23  88 CALM      30.47S
MORRIS*        CLOUDY    31  23  72 CALM      30.45R
NORTHERLY ISL    N/A     33  22  64 S10         N/A  WCI  25
$$

LMZ740>746-230800-
SOUTHERN LAKE MICHIGAN

STATION/POSITION SKY/WX   TEMP    WIND        PRES    VSBY  WAVE
                          AIR SEA DIR/SP/G                  HT/PER
                          (F)     (DEG/KT/KT) (MB)    (MI)  (FT/S)
HARRISON CRIB              35     150/ 16/ 19   N/A
BURNHAM HARBOR             34     150/  5/ 13   N/A
CALUMET HARBOR             34     120/  9/ 11 1030.5F
BURNS HARBOR               31     110/  8/ 10 1031.8F
MICHIGAN CITY              29     100/  4/  5   N/A
$$

ILZ025>027-034>036-040-047-049-050-058-095>099-230800-
WEST-CENTRAL ILLINOIS

CITY           SKY/WX    TMP DP  RH WIND       PRES   REMARKS
QUINCY         CLOUDY    39  18  42 SE12      30.31S WCI  32
GALESBURG*     CLOUDY    35  23  62 SE9         N/A  WCI  27
MACOMB*        CLOUDY    36  22  57 SE16      30.36F WCI  26
JACKSONVILLE*  CLOUDY    35  21  57 E10       30.35S WCI  27
PITTSFIELD*    MOCLDY    38  21  49 E7        30.33S WCI  33
$$

ILZ028>032-037-038-041>044-048-051>054-059>061-230800-
CENTRAL ILLINOIS

CITY           SKY/WX    TMP DP  RH WIND       PRES   REMARKS
PONTIAC        CLOUDY    31  25  81 E12       30.43S WCI  21
BLOOMINGTON    CLOUDY    31  22  69 SE15      30.40S WCI  20
DECATUR        CLOUDY    31  21  66 E8        30.39F WCI  23
PEORIA         CLOUDY    35  21  56 E10       30.38F WCI  27
LACON*         PTCLDY    30  25  79 E9        30.40F WCI  22
LINCOLN*       CLOUDY    35  24  63 E14       30.38F WCI  25
SPRINGFIELD    PTCLDY    38  21  50 E13       30.36F WCI  30
TAYLORVILLE    CLOUDY    35  21  57 E12       30.36F WCI  27
$$

ILZ033-039-045-046-055>057-062-063-230800-
EAST-CENTRAL ILLINOIS

CITY           SKY/WX    TMP DP  RH WIND       PRES   REMARKS
CHAMPAIGN      CLEAR     30  21  69 E10       30.41S WCI  21
RANTOUL*       PTCLDY    32  26  78 E7        30.41S WCI  26
MATTOON        CLOUDY    33  21  61 SE8       30.39F WCI  26
PARIS*         CLEAR     31  24  74 E6        30.43F WCI  25
$$

ILZ079-100>102-230800-
SOUTHWEST ILLINOIS

CITY           SKY/WX    TMP DP  RH WIND       PRES   REMARKS
ALTON          CLOUDY    37  21  52 E7        30.33F WCI  32
BELLEVILLE     PTCLDY    38  22  54 E8        30.31F WCI  32
CAHOKIA*       CLOUDY    41  18  39 SE8       30.32F
SPARTA*        PTCLDY    39  21  49 E9        30.34F WCI  32
$$

ILZ064>066-069>071-074>076-080>082-084>086-088>090-092>094-230800-
SOUTH-CENTRAL ILLINOIS

CITY           SKY/WX    TMP DP  RH WIND       PRES   REMARKS
CARBONDALE     CLEAR     38  22  52 E6        30.34F WCI  33
CAIRO*         PTCLDY    43  26  50 NE9       30.32F
EFFINGHAM*     PTCLDY    36  25  64 E8        30.40F WCI  29
MARION         PTCLDY    39  21  48 E5        30.35F
MT. VERNON     CLEAR     37  21  52 E6        30.36F WCI  32
CENTRALIA*     CLEAR     38  23  53 E7        30.35S WCI  33
SALEM*         CLEAR     39  21  49 E6        30.36F WCI  34
METROPOLIS*    CLEAR     40  23  50 E3        30.34F
$$

ILZ067-068-072-073-078-083-087-091-230800-
SOUTHEAST ILLINOIS

CITY           SKY/WX    TMP DP  RH WIND       PRES   REMARKS
LAWRENCEVILLE  CLEAR     33  21  61 NE6       30.42R WCI  28
FLORA*         CLEAR     37  23  57 E6        30.38F WCI  32
FAIRFIELD*     CLEAR     37  22  54 E5        30.36F WCI  34
HARRISBURG*    PTCLDY    36  25  63 E6        30.37S WCI  32
ROBINSON*      CLEAR     32  21  64 E5        30.43S WCI  27
CARMI*         CLEAR     34  24  67 E3        30.37F
$$

ABBREVIATIONS USED IN REMARKS
   TC - TEMPERATURE IN CELSIUS
  WCI - WIND CHILL INDEX
   HX - HEAT INDEX
  VSB - VISIBILITY
$$





USA.gov is the U.S. government's official web portal to all federal, state and local government web resources and services.